TimeCDT,TemperatureF,Dew PointF,Humidity,Sea Level PressureIn,VisibilityMPH,Wind Direction,Wind SpeedMPH,Gust SpeedMPH,PrecipitationIn,Events,Conditions,WindDirDegrees,DateUTC
12:52 AM,51.1,48.9,92,29.96,9.0,Calm,Calm,-,N/A,,Overcast,0,2013-10-19 05:52:00
1:52 AM,51.1,48.9,92,29.94,9.0,Calm,Calm,-,N/A,,Mostly Cloudy,0,2013-10-19 06:52:00
2:52 AM,52.0,48.9,89,29.91,10.0,SSE,3.5,-,N/A,,Overcast,160,2013-10-19 07:52:00
3:52 AM,52.0,48.9,89,29.90,10.0,South,3.5,-,N/A,,Overcast,180,2013-10-19 08:52:00
4:52 AM,53.1,48.9,86,29.89,10.0,South,3.5,-,N/A,,Overcast,180,2013-10-19 09:52:00
5:52 AM,54.0,48.9,83,29.90,10.0,WSW,3.5,-,N/A,,Overcast,240,2013-10-19 10:52:00
6:52 AM,53.1,50.0,89,29.89,10.0,Calm,Calm,-,N/A,,Overcast,0,2013-10-19 11:52:00
7:52 AM,54.0,50.0,86,29.92,7.0,SW,4.6,-,0.00,Rain,Light Rain,230,2013-10-19 12:52:00
8:17 AM,53.6,51.8,94,29.94,1.8,WSW,8.1,-,0.02,Rain,Heavy Rain,250,2013-10-19 13:17:00
8:24 AM,53.6,51.8,94,29.94,1.0,West,8.1,-,0.03,Rain,Rain,280,2013-10-19 13:24:00
8:31 AM,53.6,51.8,94,29.96,2.5,NW,20.7,26.5,0.03,Rain,Rain,310,2013-10-19 13:31:00
8:39 AM,51.8,48.2,88,29.97,4.0,NW,16.1,26.5,0.04,Rain,Light Rain,320,2013-10-19 13:39:00
8:52 AM,50.0,48.0,93,29.97,4.0,NW,18.4,27.6,0.05,Rain,Light Rain,320,2013-10-19 13:52:00
9:27 AM,48.2,46.4,93,29.98,4.0,NW,8.1,-,0.02,Rain,Light Rain,310,2013-10-19 14:27:00
9:52 AM,48.9,46.9,93,30.00,10.0,NW,9.2,-,0.03,Rain,Light Rain,310,2013-10-19 14:52:00
10:00 AM,48.2,46.4,93,30.00,10.0,WNW,6.9,-,0.00,,Overcast,300,2013-10-19 15:00:00
10:28 AM,48.2,46.4,93,30.00,10.0,NW,10.4,-,0.00,,Overcast,320,2013-10-19 15:28:00
10:40 AM,50.0,46.4,87,30.00,10.0,NW,9.2,-,0.00,,Overcast,320,2013-10-19 15:40:00
10:52 AM,51.1,46.0,83,30.01,10.0,NW,9.2,-,0.00,,Overcast,320,2013-10-19 15:52:00
11:03 AM,50.0,46.4,87,30.01,10.0,NW,11.5,-,N/A,,Overcast,320,2013-10-19 16:03:00
11:37 AM,50.0,46.4,87,30.01,10.0,NW,6.9,-,N/A,,Overcast,320,2013-10-19 16:37:00
11:52 AM,50.0,45.0,83,30.01,10.0,NW,9.2,-,N/A,,Overcast,320,2013-10-19 16:52:00
12:52 PM,50.0,44.1,80,30.01,10.0,NNW,10.4,-,N/A,,Overcast,330,2013-10-19 17:52:00
1:52 PM,51.1,44.1,77,30.01,10.0,NW,15.0,-,N/A,,Overcast,310,2013-10-19 18:52:00
2:52 PM,52.0,43.0,71,30.02,10.0,NW,9.2,-,N/A,,Overcast,310,2013-10-19 19:52:00
3:19 PM,51.8,42.8,71,30.03,10.0,WNW,9.2,-,N/A,,Overcast,290,2013-10-19 20:19:00
3:52 PM,52.0,41.0,66,30.03,10.0,West,6.9,-,N/A,,Mostly Cloudy,270,2013-10-19 20:52:00
4:52 PM,51.1,39.9,66,30.03,10.0,West,6.9,-,N/A,,Scattered Clouds,270,2013-10-19 21:52:00
5:52 PM,50.0,39.9,68,30.03,10.0,SW,4.6,-,N/A,,Clear,230,2013-10-19 22:52:00
6:52 PM,46.0,41.0,83,30.04,10.0,SSW,3.5,-,N/A,,Clear,210,2013-10-19 23:52:00
7:52 PM,45.0,41.0,86,30.05,10.0,SW,4.6,-,N/A,,Clear,230,2013-10-20 00:52:00
8:52 PM,42.1,39.9,92,30.06,10.0,Calm,Calm,-,N/A,,Clear,0,2013-10-20 01:52:00
9:52 PM,42.1,39.0,89,30.07,10.0,Calm,Calm,-,N/A,,Clear,0,2013-10-20 02:52:00
10:52 PM,39.0,37.9,96,30.09,2.0,Calm,Calm,-,N/A,,Clear,0,2013-10-20 03:52:00
11:21 PM,39.2,37.4,93,30.07,4.0,Calm,Calm,-,N/A,,Clear,0,2013-10-20 04:21:00
11:45 PM,39.2,37.4,93,30.07,1.5,Calm,Calm,-,N/A,,Clear,0,2013-10-20 04:45:00
11:52 PM,39.0,37.9,96,30.07,0.5,Calm,Calm,-,N/A,Fog,Fog,0,2013-10-20 04:52:00